Regional Weather Roundup
Issued by NWS Midland/Odessa, TX

Skip options and go directly to product.
Home | Oldest Version | Next Version | Current Version | All | Text Only | Save Text | Print | Product List | Glossary On

Skip product version selection by date and time.   
872
ASUS44 KMAF 270010
RWRMAF
MIDLAND AREA WEATHER ROUNDUP
NATIONAL WEATHER SERVICE MIDLAND TX
600 PM CST THU FEB 26 2015

...IN SOUTHWEST TEXAS AND SOUTHEAST NEW MEXICO...

CITY           SKY/WX    TMP DP  RH WIND       PRES   REMARKS
ALPINE         CLOUDY    32  29  89 NE12      30.17R WCI  23
ANDREWS        CLOUDY    28  16  60 NE14G20   30.21R WCI  17
ARTESIA        CLOUDY    32  23  69 E13       30.20F WCI  22
BIG SPRING     CLOUDY    33  18  53 NE18G25   30.26F WCI  22
CARLSBAD       CLOUDY    34  23  64 E9        30.18F WCI  27
DRYDEN           N/A     44  27  51 N17G24    30.16R WCI  36
FORT STOCKTON  CLOUDY    33  24  69 E14       30.19R WCI  23
GUAD PASS      FRZ RAIN  26  25  96 NE33      30.03R VSB 1/2 WCI   9
HOBBS          CLOUDY    27  16  63 NE12G18   30.21R WCI  16
MARFA          PTSUNNY   34  27  75 NE18      30.08R WCI  23
MIDLAND AIRPK  CLOUDY    32  19  58 E12       30.24R WCI  23
MIDLAND INTL   CLOUDY    30  17  58 E18       30.22R WCI  18
ODESSA         CLOUDY    30  17  58 E15G21    30.22R WCI  19
PECOS          CLOUDY    35  24  62 NE15      30.22R WCI  26
PRESIDIO       FAIR      59  32  35 NE18G29   29.97R
SEMINOLE       CLOUDY    28  16  60 E13       30.23R WCI  18
SNYDER         CLOUDY    29  14  54 NE13G20   30.28R WCI  19
WINK           CLOUDY    33  19  56 E15       30.22R WCI  23
$$
...OTHER STATIONS IN TEXAS...

CITY           SKY/WX    TMP DP  RH WIND       PRES   REMARKS
ABILENE        CLOUDY    29  17  61 N13       30.31R WCI  19
AMARILLO       CLOUDY    26   9  48 NE13      30.25R WCI  15
AUSTIN         MOCLDY    41  30  65 N23       30.24R WCI  31
BROWNSVILLE    CLEAR     60  45  57 NE15G23   30.08R
CORPUS CHRISTI MOCLDY    58  38  47 E22       30.12R
DALLAS FTW     CLOUDY    35  17  47 N12       30.33R WCI  27
DEL RIO        CLEAR     50  30  46 N13G22    30.15R
EL PASO        MOSUNNY   49  29  46 E20       29.96R
HOUSTON INT    PTCLDY    47  35  63 N16       30.21R
LUBBOCK        CLOUDY    25  16  68 NE14      30.24S WCI  13
SAN ANGELO     CLOUDY    30  21  69 NE16      30.27S WCI  19
SAN ANTONIO    CLOUDY    44  34  67 N16       30.20R WCI  37
WACO           CLOUDY    37  22  54 N18G25    30.30R WCI  27
WICHITA FALLS  NOT AVBL
$$
...OTHER LOCATIONS IN NEW MEXICO...

CITY           SKY/WX    TMP DP  RH WIND       PRES   REMARKS
ALAMAGORDO     PTSUNNY   48  27  43 MISG      29.95F
ALBUQUERQUE    CLOUDY    35  21  56 E25G33    29.94R WCI  23
CANNON AFB     NOT AVBL
CLOVIS         CLOUDY    21  18  86 E14       30.19F WCI   8
HOLLOMAN AFB   PTSUNNY   48  25  40 S20G28    29.93F
ROSWELL        CLOUDY    32  20  61 E10       30.19R WCI  24
RUIDOSO        FOG       19  19 100 MISG      30.05S VSB 1/4
SANTA FE       CLOUDY    25  18  74 SE20G26   29.97F WCI  11
TRUTH OR CONSE CLOUDY    54  23  30 S17G26    29.85F
TUCUMCARI      CLOUDY    24  19  81 E12       30.19R WCI  13
$$

USA.gov is the U.S. government's official web portal to all federal, state and local government web resources and services.